Location: ?????????
(54.7630°N, 39.4991°E)
Time: 18:25:22
(UTC+00:00)

Cosmos 1933 - Pass Details

Date: 14 April 2026
Orbit: 508 x 512 km, 82.5° (Epoch: 19 May)

Event Time Altitude Azimuth Distance (km) Brightness Sun altitude
Exits shadow 23:39:59 30° 283° (WNW) 932 4.2 -19.4°
Maximum altitude 23:40:14 31° 291° (WNW) 925 4.3 -19.3°
Drops below altitude 10° 23:43:40 10° 355° (N) 1,742 6.5 -19.0°
Sets 23:45:59 0° 6° (N) 2,633 7.8 -18.8°
